Location: Unspecified
(43.3830°N, 0.0000°E)
Time: 20:56:54
(UTC+00:00)

Vanguard 2 - Pass Details

Date: 25 June 2019
Orbit: 553 x 2938 km, 32.9° (Epoch: 15 July)

Event Time Altitude Azimuth Distance (km) Brightness Sun altitude
Rises 12:59:38 0° 263° (W) 4,245 11.5 66.8°
Reaches altitude 10° 13:03:03 10° 247° (WSW) 3,631 11.4 66.4°
Maximum altitude 13:09:47 21° 204° (SSW) 3,474 11.6 65.7°
Drops below altitude 10° 13:18:46 10° 162° (SSE) 5,010 12.0 64.6°
Sets 13:24:48 0° 150° (SSE) 6,383 12.3 63.8°
